Tracking 18624 objects as of 27-April-2017
HD Live streaming from Space Station
objects crossing your sky now

COSMOS 1626

Track COSMOS 1626 now!
10-day predictions
COSMOS 1626 is classified as:


NORAD ID: 15494
Int'l Code: 1985-009A
Perigee: 505.1 km
Apogee: 507.0 km
Inclination: 82.5 °
Period: 94.6 minutes
Semi major axis: 6877 km
RCS: 7.281 m2 (large)
Launch date: January 24, 1985
Source: Commonwealth of Independent States (former USSR) (CIS)
Launch site: PLESETSK MISSILE AND SPACE COMPLEX (PKMTR)
Your satellite tracking list
Your tracking list is empty





NASA's NSSDC Master Catalog

Two Line Element Set (TLE):
1 15494U 85009A   17115.88599569 +.00002478 +00000-0 +10623-3 0  9995
2 15494 082.4773 301.9911 0001402 193.3359 298.9195 15.22303529760525
Source of the keplerian elements: AFSPC